Regional Weather Roundup
Issued by NWS Charleston, SC

Current Version | Previous Version | Graphics & Text | Print | Product List | Glossary On
Versions: 1 2 3 4 5 6 7 8 9 10 11 12 13 14 15 16 17 18 19 20 21 22 23 24 25 26 27 28 29 30 31 32 33 34 35 36 37 38 39 40 41 42 43 44 45 46 47 48 49 50
000 ASUS42 KCHS 261011 RWRCHS REGIONAL WEATHER ROUNDUP NATIONAL WEATHER SERVICE CHARLESTON SC 500 AM EST SUN FEB 26 2017 NOTE: "FAIR" INDICATES FEW OR NO CLOUDS BELOW 12,000 FEET WITH NO SIGNIFICANT WEATHER AND/OR OBSTRUCTIONS TO VISIBILITY. NOT ALL STATIONS ARE QUALITY CONTROLLED. USE DATA WITH CAUTION... ESPECIALLY DEWPOINT OBSERVATIONS. SCZ027-030-031-034>040-042>050-261100- ...SOUTHEAST SOUTH CAROLINA... CITY SKY/WX TMP DP RH WIND PRES REMARKS N CHARLESTON CLEAR 49 23 36 NW8 30.06R WATERFRONT PRK N/A 53 27 36 NW5 30.04R MOUNT PLEASANT LGT RAIN 50 28 43 NW6 30.06R JOHNS ISLAND FAIR 46 27 46 W5 30.06R PINOPOLIS N/A 54 36 50 NW12 29.96R MONCKS CORNER FAIR 46 21 36 NW3 30.06R SUMMERVILLE FAIR 46 27 46 W3 30.08R BEAUFORT MCAS CLEAR 48 27 44 NW6 30.08R BEAUFORT ARPT FAIR 48 28 46 NW9 30.08R HILTON HEAD IS CLEAR 50 25 37 W5 30.09R WALTERBORO SUNNY 45 25 45 NW3 30.08R ALLENDALE FAIR 43 25 49 CALM 30.08R ...SOUTHERN MIDLANDS AND PEE DEE... CITY SKY/WX TMP DP RH WIND PRES REMARKS GEORGETOWN FAIR 43 28 56 W3 30.05R KINGSTREE FAIR 41 27 56 NW5 30.06R ORANGEBURG CLEAR 46 24 42 NW7 30.07R BARNWELL FAIR 45 25 45 W3 30.09R AIKEN FAIR 37 23 56 W5 30.10R WCI 34 MANNING FAIR 41 27 56 MISG 30.07R COLUMBIA CLEAR 41 26 55 NW3 30.07R SUMTER CLEAR 43 21 41 NW5 30.05R FLORENCE CLEAR 44 22 41 NW7 30.06R MYRTLE BEACH CLEAR 49 26 41 NW7 30.04R N MYRTLE BEACH CLEAR 50 26 39 N7 30.02R $$ GAZ063-065-086>088-099>101-113>116-118-119-134>141-150-261100- ...SOUTHEAST GEORGIA... CITY SKY/WX TMP DP RH WIND PRES REMARKS SAVANNAH ARPT CLEAR 46 28 49 W5 30.09R HUNTER AAF CLEAR 47 29 49 CALM 30.07R FORT STEWART CLEAR 46 27 47 CALM 30.08R STATESBORO CLEAR 41 32 70 CALM 30.09R SYLVANIA SUNNY N/A N/A N/A NW3 30.10R CLAXTON FAIR 42 42 100 CALM 30.10R ...CSRA...CENTRAL AND FAR SOUTHEAST GEORGIA... CITY SKY/WX TMP DP RH WIND PRES REMARKS THOMSON CLEAR 40 28 60 CALM 30.13R AUGUSTA-BUSH CLEAR 43 24 47 W5 30.08R AUGUSTA-DANIEL CLEAR 45 19 35 NW9 30.08R SWAINSBORO FAIR 41 28 60 NW6 30.11R VIDALIA CLEAR 45 32 61 NW5 30.11R EASTMAN FAIR 39 21 49 CALM 30.14R HAZLEHURST FAIR 43 32 65 CALM 30.10R ALMA CLEAR 41 30 65 CALM 30.11R WAYCROSS CLEAR 47 32 56 N3 30.12R JESUP FAIR 45 28 53 NW3 30.11R BAXLEY FAIR 41 34 75 CALM 30.10R BRUNSWICK CLEAR 50 32 50 NW3 30.11R SAINT SIMONS CLEAR 51 26 37 NW6 30.10R $$ SCZ027-028-034-036>038-045-046-048>050-GAZ119-141-261100- ...LAKE AND SUPPLEMENTAL COASTAL OBSERVATIONS... STATION/POSITION TIME TEMP WIND PRES WAVE SWELL AIR SEA DIR/SP/G HT/PER HT/PER/DIR (UTC) (F) (DEG/KT/KT) (MB) (FT/S) (FT/S/D) WINYAH BAY 0845 52 300/ 4 1015.0 LAKE MURRAY 0920 44 310/ 2/ 5 1017.3 ACE BASIN NERRS 0845 48 CALM 1017.0 FORT PULASKI 0948 51 62 330/ 7/ 9 1018.9R SAPELO ISLAND 0900 51 330/ 7 1018.0 $$ ANZ835-935-AMZ111-154-330-350-352-354-370-450-454-472-261100- ...C-MAN AND BUOY OBSERVATIONS... STATION/POSITION TIME TEMP WIND PRES WAVE SWELL AIR SEA DIR/SP/G HT/PER HT/PER/DIR (UTC) (F) (DEG/KT/KT) (MB) (FT/S) (FT/S/D) BUOY 41004 0850 60 69 320/ 19/ 25 1015.1 6/ 6 2/110/ 9 BUOY 41008 0850 58 62 320/ 17/ 19 1017.4 4/10 2/ 90/10 FOLLY BEACH CMAN 0900 52 300/ 6/ 9 1017.2R CAPERS NEARSHORE NOT AVBL FRIPP NEARSHORE 0908 55 62 320/ 14/ 19 1017.2R STATION/POSITION TIME TEMP WIND PRES WAVE SWELL AIR SEA DIR/SP/G HT/PER HT/PER/DIR (UTC) (F) (DEG/KT/KT) (MB) (FT/S) (FT/S/D) 5E ST. MARYS GA 0930 64 N/A 3/11 2/ 70/11 FRYING PAN BUOY 0950 59 69 340/ 21/ 25 1015.5R 5/10 2/120/10 BUOY 41025 0950 58 73 330/ 19/ 25 1013.3R 8/ 8 5/150/10 CAPE LOOKOUT NC 0900 56 340/ 17/ 19 1013.4R BUOY 41002 0850 72 71 240/ 16/ 19 1012.4 6/10 5/ 90/10 BUOY 41010 NOT AVBL ST AUGUSTINE FL 1000 58 65 340/ 15/ 17 1019.2R $$

USA.gov is the U.S. government's official web portal to all federal, state and local government web resources and services.